sat.trackr.live / text

‹ back to catalog

STARLINK-37293

NORAD 68978 · 2026-099AD

PAYLOAD ACTIVE UNKNOWN

§ Identity

Operator
Country
US
Launch date
2026-05-01
Launch site
AFETR
Launch vehicle
Mass (kg)
RCS (m²)

Purposes: comms

External: N2YO · Heavens-Above · Gunter

§ Orbital elements

Epoch: 2026-05-25T04:00:03.998880Z

Period
92.08 min
Inclination
53.1592°
Eccentricity
0.0000701
Mean motion
15.63935226 rev/d
Perigee alt
375.8 km
Apogee alt
376.8 km
Semi-major
6,754.4 km
B*
-2.5713e-2
RAAN
269.9136°
Arg perigee
76.3640°
Mean anomaly
292.3719°
Rev number
496

§ Raw data

STARLINK-372931 68978U 26099AD  26145.16671295 -.02146283  00000+0 -25713-1 0  99952 68978  53.1592 269.9136 0000701  76.3640 292.3719 15.63935226  4969

JSON: /api/v1/satellites/68978 · /tle

For live sub-satellite position, see the globe view (requires WebGL).

§ Visibility from observer

Set your observer location to see the next 7 days of passes ≥ 10°. The values pass through the URL so the page stays shareable.

No JS? Fill the form by hand. The geolocation button needs JavaScript.